Temp
74 75 74 75 76 76 81 78 81 87 89 89 90 89 87 86 83 83 84 85 85 88 89 89 87 84 90 88 89 91 88 89
76 76 76 76 78 76 79 80 83 82 87 87 87 85 80 80 78 78 82 82 79 80 84 85 84 87 84 85 88 85 85 85
80 81 80 79 78 77 80 80 80 81 81 82 81 81 80 80 80 77 78 77 71 73 78 79 78 82 84 84 83 85 86 87
78 79 78 78 77 76 78 77 73 76 77 77 79 78 79 80 78 75 74 76 74 78 79 80 81 82 81 82 82 83 85 87
75 76 75 76 77 76 74 75 73 71 74 76 77 78 79 78 77 74 73 72 72 73 78 78 77 78 77 79 80 82 84 86
75 75 75 75 75 72 73 75 73 70 68 68 69 66 69 71 72 75 71 71 71 73 76 75 73 76 78 77 77 79 80 81
73 75 74 74 73 73 72 73 73 71 72 73 72 71 74 75 75 74 69 71 70 70 74 73 71 75 76 75 75 75 75 77
73 73 74 73 72 71 71 72 70 73 75 76 79 78 76 75 73 71 69 70 69 70 73 70 72 74 73 71 69 73 73 75
73 72 73 73 71 69 68 68 67 71 73 73 74 73 73 73 72 69 68 69 69 69 71 71 70 71 68 69 70 70 73 74
70 71 71 70 69 69 68 67 66 68 71 70 70 70 72 71 71 69 68 68 68 69 67 69 67 70 68 67 67 68 72 72
70 70 70 71 68 67 67 66 66 66 66 70 70 72 72 71 70 70 69 67 68 67 67 67 67 70 69 66 66 64 64 71
72 71 70 69 69 70 68 67 65 67 66 66 64 66 65 66 68 68 68 67 67 67 67 67 64 68 65 66 66 62 62 60
73 73 72 71 70 69 68 66 65 65 65 64 66 63 66 68 67 65 66 66 66 67 66 65 64 66 66 65 64 64 65 63
75 74 71 70 71 71 68 66 64 65 65 64 62 60 59 61 61 62 63 63 63 64 65 64 65 66 66 65 62 62 61 63
73 71 71 70 69 68 69 66 64 65 64 64 62 60 59 58 58 57 56 57 58 60 62 62 64 64 66 66 64 64 64 63
74 73 72 72 68 67 66 65 64 64 64 63 62 60 61 59 57 59 60 59 60 60 62 64 64 65 66 66 68 67 65 65
73 72 72 71 68 66 64 65 64 64 64 64 62 59 59 59 61 61 61 60 61 61 62 63 66 66 66 66 66 64 65 65
73 72 70 69 68 67 64 64 63 64 64 64 61 60 60 63 62 61 63 64 65 64 65 66 66 66 66 64 66 64 63 65
73 72 69 69 69 68 65 65 63 64 64 63 62 61 62 64 64 64 64 64 65 65 65 65 65 65 65 64 64 64 63 63
74 71 70 69 69 68 66 65 65 64 64 63 63 63 65 64 64 65 66 64 65 65 65 65 65 65 65 64 64 64 63 62
MSLP
1016.88 1017.15 1017.58 1017.57 1017.84 1017.86 1017.60 1017.60 1017.29 1016.58 1016.41 1016.51 1016.46 1016.51 1016.79 1016.83 1017.15 1017.00 1016.63 1016.16 1015.92 1015.43 1015.02 1014.92 1015.04 1014.70 1013.92 1013.79 1013.69 1013.22 1013.27 1013.05
1017.23 1017.52 1017.89 1018.02 1018.10 1018.34 1018.18 1017.92 1017.55 1017.64 1017.06 1016.94 1016.93 1017.08 1017.95 1017.97 1018.11 1017.85 1016.99 1016.59 1016.82 1016.41 1015.70 1015.35 1015.11 1014.64 1014.65 1014.23 1013.55 1013.82 1013.79 1013.58
1017.43 1017.59 1017.96 1018.29 1018.47 1018.70 1018.47 1018.21 1018.17 1018.07 1017.98 1017.96 1018.13 1018.07 1018.28 1018.23 1018.21 1018.46 1018.12 1017.64 1017.89 1017.53 1016.77 1016.41 1016.22 1015.50 1014.84 1014.41 1014.18 1013.51 1013.20 1012.96
1017.87 1017.94 1018.28 1018.59 1018.87 1019.19 1019.09 1019.19 1019.52 1019.21 1019.04 1019.03 1018.82 1019.00 1018.74 1018.58 1018.72 1019.07 1018.94 1018.41 1018.24 1017.25 1016.71 1016.33 1015.93 1015.69 1015.46 1014.89 1014.35 1013.94 1013.16 1012.46
1018.60 1018.93 1019.11 1019.24 1019.38 1019.75 1019.83 1019.78 1020.24 1020.17 1019.73 1019.49 1019.43 1019.32 1019.11 1019.06 1019.13 1019.35 1019.37 1019.16 1018.79 1018.29 1017.19 1016.84 1016.75 1016.37 1015.98 1015.23 1014.72 1013.84 1013.14 1012.62
1019.09 1019.47 1019.66 1019.93 1020.07 1020.45 1020.46 1020.32 1020.48 1020.69 1020.77 1020.75 1020.72 1020.88 1020.47 1020.10 1019.79 1019.37 1019.74 1019.48 1019.21 1018.40 1017.64 1017.41 1017.61 1016.62 1016.02 1015.49 1015.02 1014.33 1013.76 1013.23
1019.59 1019.88 1020.24 1020.46 1020.75 1020.80 1020.84 1020.82 1020.72 1020.71 1020.61 1020.47 1020.59 1020.60 1020.21 1020.02 1019.77 1019.77 1020.14 1019.71 1019.51 1018.99 1018.06 1017.93 1017.74 1016.59 1016.08 1015.86 1015.46 1015.00 1014.23 1013.52
1019.88 1020.35 1020.61 1020.92 1021.12 1021.35 1021.46 1021.34 1021.35 1020.83 1020.38 1019.93 1019.52 1019.49 1019.91 1020.09 1020.09 1020.29 1020.27 1019.82 1019.57 1019.12 1018.14 1018.27 1017.71 1016.75 1016.43 1016.40 1016.04 1015.31 1014.75 1013.74
1020.11 1020.63 1020.90 1021.14 1021.62 1021.87 1022.06 1021.98 1021.96 1021.44 1020.99 1020.64 1020.15 1019.97 1019.98 1020.12 1020.33 1020.63 1020.39 1019.98 1019.60 1018.99 1018.44 1018.09 1017.82 1017.08 1017.11 1016.76 1016.18 1015.31 1014.42 1014.15
1020.31 1020.73 1021.08 1021.51 1021.94 1022.29 1022.38 1022.47 1022.55 1022.35 1021.91 1021.68 1021.41 1020.93 1020.52 1020.60 1020.43 1020.50 1020.52 1020.20 1019.77 1019.20 1019.08 1018.35 1018.20 1017.37 1017.08 1017.01 1016.64 1015.77 1014.78 1014.60
1019.80 1020.51 1021.02 1021.54 1022.08 1022.37 1022.61 1022.92 1022.98 1022.94 1022.79 1021.79 1021.40 1020.59 1020.17 1020.32 1020.37 1020.20 1020.31 1020.33 1019.94 1019.59 1019.21 1018.75 1018.27 1017.47 1017.24 1017.31 1017.13 1016.82 1016.05 1014.89
1019.27 1020.03 1020.83 1021.48 1021.93 1022.26 1022.76 1023.20 1023.32 1023.09 1023.07 1022.34 1022.11 1021.33 1020.96 1021.12 1020.75 1020.64 1020.30 1020.33 1020.04 1019.70 1019.35 1018.96 1018.79 1017.85 1017.92 1017.58 1017.61 1017.51 1017.11 1016.44
1018.77 1019.47 1020.48 1021.34 1021.74 1022.30 1022.98 1023.33 1023.42 1023.47 1023.31 1023.12 1022.45 1022.15 1021.69 1021.31 1021.13 1020.94 1020.35 1020.10 1020.09 1019.82 1019.52 1019.15 1018.87 1018.19 1018.09 1018.01 1017.91 1017.49 1017.18 1016.98
1018.35 1019.38 1020.48 1021.06 1021.60 1022.15 1022.75 1023.09 1023.42 1023.53 1023.30 1023.12 1023.04 1022.93 1022.69 1022.15 1021.91 1021.35 1020.85 1020.55 1020.37 1020.15 1019.83 1019.53 1019.12 1018.54 1018.38 1018.30 1018.34 1018.11 1018.01 1017.43
1017.94 1019.06 1019.93 1020.79 1021.49 1022.10 1022.44 1023.05 1023.22 1023.38 1023.30 1023.17 1023.31 1023.22 1022.90 1022.63 1022.38 1022.15 1021.92 1021.51 1021.13 1020.74 1020.18 1019.75 1019.26 1019.06 1018.63 1018.40 1018.32 1017.95 1017.90 1017.66
1017.45 1018.60 1019.61 1020.44 1021.48 1022.10 1022.58 1023.00 1023.09 1023.39 1023.38 1023.34 1023.47 1023.36 1023.10 1023.06 1022.98 1022.52 1021.97 1021.70 1021.22 1021.12 1020.29 1019.88 1019.57 1019.33 1018.92 1018.70 1018.31 1018.19 1018.18 1017.81
1017.09 1018.50 1019.55 1020.34 1021.35 1022.13 1022.73 1023.00 1023.16 1023.45 1023.45 1023.45 1023.54 1023.67 1023.46 1023.34 1022.93 1022.41 1021.91 1021.75 1021.30 1021.16 1020.74 1020.24 1019.83 1019.64 1019.44 1018.97 1018.87 1018.89 1018.56 1018.17
1016.94 1018.40 1019.52 1020.56 1021.36 1022.22 1022.87 1023.16 1023.36 1023.49 1023.48 1023.49 1023.67 1023.68 1023.55 1023.19 1022.79 1022.48 1022.10 1021.73 1021.34 1021.05 1020.65 1020.38 1020.17 1019.97 1019.88 1019.61 1019.18 1019.32 1019.00 1018.67
1016.73 1018.13 1019.58 1020.52 1021.34 1021.88 1022.57 1022.84 1023.24 1023.34 1023.45 1023.60 1023.55 1023.60 1023.36 1023.03 1022.69 1022.49 1022.22 1021.98 1021.69 1021.35 1021.08 1020.76 1020.49 1020.24 1020.20 1020.07 1019.80 1019.59 1019.30 1019.05
1016.42 1018.00 1019.28 1020.17 1020.87 1021.65 1022.27 1022.80 1023.03 1023.41 1023.61 1023.62 1023.57 1023.43 1023.17 1023.05 1022.91 1022.60 1022.30 1022.08 1021.88 1021.64 1021.35 1021.05 1020.76 1020.54 1020.35 1020.17 1019.86 1019.69 1019.42 1019.16
Wind_Speed
11 11 10 9 10 9 9 7 6 8 6 5 4 5 5 6 10 10 6 5 5 5 4 3 5 2 5 4 4 6 7 7
10 10 9 8 10 10 9 8 8 8 6 6 6 6 7 5 5 10 7 7 9 8 6 6 6 6 7 8 5 5 7 8
9 9 8 7 8 8 9 10 9 9 8 7 7 6 6 6 8 10 9 6 6 5 4 4 4 6 6 6 6 7 7 7
7 7 8 7 6 8 9 11 10 10 7 8 5 6 5 6 6 9 10 8 8 7 6 7 7 7 8 8 8 8 8 8
9 8 8 8 8 8 8 8 10 9 8 8 7 7 6 6 6 7 9 9 9 9 7 6 7 8 9 8 9 8 8 8
9 9 9 9 9 10 9 8 8 8 7 6 5 6 5 6 7 7 10 9 10 9 7 7 9 7 7 8 9 9 9 9
9 10 10 10 10 9 9 9 9 7 5 4 4 4 5 5 6 6 9 8 10 9 6 8 10 7 7 8 8 9 9 10
9 10 10 10 11 10 10 10 12 9 6 4 3 4 5 5 6 7 9 8 9 8 6 8 9 7 8 9 10 9 9 9
9 8 8 9 9 10 11 12 12 9 9 9 7 8 6 6 6 8 10 9 10 9 8 8 9 8 9 10 9 10 8 8
9 8 7 8 9 9 10 11 12 11 8 7 6 6 6 5 6 6 8 10 9 9 9 8 9 8 8 9 10 9 7 7
11 9 7 8 8 8 10 10 10 10 11 7 8 5 5 6 7 6 8 9 9 9 9 8 8 7 8 8 9 11 9 9
11 10 8 7 7 9 9 8 9 10 11 10 9 8 7 6 6 7 7 7 8 8 8 8 7 7 7 7 7 6 8 9
12 11 9 8 7 8 7 7 9 10 10 9 9 9 8 7 7 9 6 6 7 9 9 8 7 6 7 8 8 9 6 6
12 10 9 7 6 6 6 8 9 8 9 9 9 10 10 9 10 8 8 6 6 8 9 8 8 8 8 7 7 7 7 9
13 12 10 7 5 6 6 9 8 9 9 9 10 9 7 9 9 8 9 7 8 9 8 7 7 7 8 8 8 7 9 8
13 12 9 8 6 6 7 6 8 9 9 9 7 8 7 7 7 6 6 6 6 7 7 8 8 9 9 8 8 8 8 7
14 12 9 8 6 7 5 7 8 8 8 6 7 7 7 6 6 6 6 7 6 6 6 7 9 10 10 9 8 9 9 8
14 12 10 7 6 7 5 6 7 7 6 6 6 5 6 5 6 8 9 9 10 9 9 8 8 9 10 10 8 9 9 8
14 12 10 9 7 6 5 5 5 5 6 5 6 5 3 6 6 7 8 8 9 9 8 7 8 8 9 8 7 8 9 9
14 12 11 9 7 6 6 4 4 5 4 4 5 5 5 6 6 6 7 8 8 8 7 7 8 7 6 7 7 7 9 9
Wind_Direction
94 75 62 48 59 39 35 46 28 0 29 347 23 17 9 22 17 357 10 345 4 352 340 346 336 18 338 321 292 297 339 309
90 79 73 62 54 43 34 29 28 30 360 18 13 30 21 19 27 6 1 6 2 354 356 330 341 347 357 340 331 332 298 289
87 89 83 76 54 38 32 35 29 22 27 24 22 20 28 17 22 26 8 20 7 345 322 349 320 322 330 324 317 313 297 270
86 69 62 53 55 41 28 38 32 31 42 36 33 33 24 22 32 22 12 357 356 337 345 345 347 348 340 330 341 320 308 296
69 60 61 45 58 50 45 51 47 38 24 21 20 19 14 22 21 31 11 3 354 328 341 342 351 331 323 328 326 324 314 315
75 68 63 53 50 54 49 48 52 51 42 39 38 30 13 6 3 0 3 359 355 329 340 346 344 325 331 337 334 326 318 316
79 76 69 65 60 53 53 44 36 23 27 26 26 20 11 3 1 5 1 355 353 334 345 347 328 332 340 343 335 324 318 310
99 88 77 71 64 53 48 39 27 19 8 341 345 356 11 8 7 8 357 354 353 347 345 346 331 343 346 350 335 328 311 310
111 99 91 86 69 58 44 41 29 19 17 5 352 355 359 356 359 2 356 356 357 357 349 349 347 353 354 349 341 333 323 346
131 129 118 93 79 64 54 41 33 22 9 360 345 336 344 336 357 352 8 355 359 353 353 347 355 336 14 358 1 344 349 356
153 154 130 112 90 67 53 39 25 24 359 357 349 336 323 359 348 359 357 355 356 358 356 353 348 336 18 4 14 15 356 354
161 152 142 120 98 73 57 38 22 22 8 357 355 346 352 352 339 6 332 2 355 1 356 1 11 355 16 18 24 10 5 16
168 156 141 121 99 76 59 38 27 14 3 3 350 5 349 345 344 338 345 4 2 3 2 4 18 6 17 35 2 14 1 14
165 148 145 129 120 88 67 34 24 6 5 16 11 7 353 355 353 344 352 3 351 15 0 9 1 359 25 7 9 23 13 2
170 166 163 153 117 72 43 28 14 11 12 17 13 3 14 2 359 6 359 2 356 2 351 6 7 9 14 3 20 20 16 13
177 170 166 154 124 78 51 18 20 16 18 13 21 15 31 27 25 18 19 22 7 7 4 14 21 23 22 17 34 15 26 19
176 165 170 150 123 85 46 25 33 29 31 31 43 39 42 36 23 9 26 35 26 29 34 36 42 35 26 1 33 12 3 10
170 169 160 141 124 112 70 45 39 39 44 39 49 35 54 22 36 35 35 32 35 40 43 43 41 35 30 14 25 37 31 25
169 168 156 155 148 129 97 57 62 66 53 38 46 58 65 29 33 35 32 35 26 27 25 20 17 21 32 33 35 31 30 24
170 158 163 162 160 130 99 75 92 84 60 45 60 51 25 35 35 37 39 38 31 23 17 16 17 13 16 18 14 14 12 5